This demonstration page uses our WeatherBlox Daily Observations layout. Learn more.

Left ArrowRight Arrow

Hourly Observations for April 23, 2021

Temp ( °F °C ) Dew Point ( °F °C ) Humidity (%) Winds ( mph kmh ) Pressure ( in mb ) Visibility ( mi km ) Precip ( " mm )
12:53 am 00:53 Clear 42 5.6 37 2.8 82 82 Calm 30.16 1021 10 16 0.00 0.00
1:53 am 01:53 Clear 41 5 38 3.3 89 89 Calm 30.17 1022 10 16 0.00 0.00
2:53 am 02:53 Clear 40 4.4 36 2.2 86 86 Calm 30.16 1021 10 16 0.00 0.00
3:53 am 03:53 Clear 40 4.4 37 2.8 89 89 Calm 30.14 1021 10 16 0.00 0.00
4:53 am 04:53 Clear 40 4.4 37 2.8 89 89 Calm 30.16 1021 10 16 0.00 0.00
5:53 am 05:53 Clear 39 3.9 38 3.3 96 96 Calm 30.16 1021 10 16 0.00 0.00
6:53 am 06:53 Cloudy 42 5.6 39 3.9 89 89 NNE 3 6 30.14 1021 10 16 0.00 0.00
7:53 am 07:53 Mostly Cloudy 45 7.2 40 4.4 83 83 Calm 30.19 1023 10 16 0.00 0.00
8:53 am 08:53 Cloudy 48 8.9 42 5.6 80 80 Calm 30.21 1023 10 16 0.00 0.00
9:53 am 09:53 Cloudy 51 10.6 42 5.6 71 71 NNE 3 6 30.22 1023 10 16 0.00 0.00
10:53 am 10:53 Cloudy 55 12.8 38 3.3 53 53 E 5 7 30.23 1024 10 16 0.00 0.00
11:53 am 11:53 Cloudy with Light Rain 58 14.4 31 -0.6 36 36 E 8 13 30.23 1024 10 16 0.00 0.00
12:53 pm 12:53 Sunny 62 16.7 32 0 32 32 ESE 8 13 30.19 1022 10 16 0.00 0.00
1:53 pm 13:53 Mostly Cloudy 64 17.8 31 -0.6 29 29 S 6 9 30.17 1022 10 16 0.00 0.00
2:53 pm 14:53 Mostly Sunny 67 19.4 32 0 27 27 VRB 6 9 30.15 1021 10 16 0.00 0.00
3:53 pm 15:53 Sunny 67 19.4 32 0 27 27 Calm 30.12 1020 10 16 0.00 0.00
4:53 pm 16:53 Sunny 69 20.6 34 1.1 27 27 undefined N/A 30.10 1019 10 16 0.00 0.00
5:53 pm 17:53 Sunny 69 20.6 34 1.1 27 27 SW 5 7 30.08 1019 10 16 0.00 0.00
6:53 pm 18:53 Sunny 69 20.6 35 1.7 29 29 ESE 6 9 30.06 1018 10 16 0.00 0.00
7:53 pm 19:53 Sunny 67 19.4 36 2.2 32 32 SSE 7 11 30.05 1018 10 16 0.00 0.00
8:53 pm 20:53 Clear 64 17.8 37 2.8 37 37 ESE 3 6 30.06 1018 10 16 0.00 0.00
9:53 pm 21:53 Clear 64 17.8 38 3.3 38 38 E 3 6 30.06 1018 10 16 0.00 0.00
10:53 pm 22:53 Clear 63 17.2 38 3.3 40 40 E 5 7 30.06 1018 9 14 0.00 0.00
11:53 pm 23:53 Clear 62 16.7 37 2.8 40 40 ESE 6 9 30.04 1017 10 16 0.00 0.00

Powered by AerisWeather